Athens, OH

3:28 AM EST on November 19, 2019 (GMT -0500)
Ohio University

Weather History for KUNI - September, 2019

Change the Weather History Date:

Sunday, September 15, 2019

  Actual Average (KPKB) Record (KPKB)
Temperature  
Mean Temperature 67 °F -  
Max Temperature 84 °F 77 °F 94 °F (1939)
Min Temperature 50 °F 56 °F 40 °F (1985)
Cooling Degree Days 2    
Growing Degree Days 17 (Base 50)    
Moisture  
Dew Point 55 °F    
Average Humidity 74    
Maximum Humidity 100    
Minimum Humidity 32    
Precipitation  
Precipitation 0.00 in - - ()
Sea Level Pressure  
Sea Level Pressure 30.18 in    
Wind  
Wind Speed 1 mph (North)    
Max Wind Speed 6 mph    
Max Gust Speed -    
Visibility 10 miles    
Events      
Averages and records for this station are not official NWS values.
T = Trace of Precipitation, MM = Missing Value Source: NWS Daily Summary

Daily Weather History Graph

Daily Weather History Graph

Search for Another Location

Airport or City:

Astronomy

Sep. 15, 2019 Rise Set
Actual Time 7:10 AM EDT 7:37 PM EDT
Civil Twilight 6:43 AM EDT 8:04 PM EDT
Nautical Twilight 6:11 AM EDT 8:36 PM EDT
Astronomical Twilight 5:39 AM EDT 9:08 PM EDT
Moon 8:45 PM EDT (9/15) 8:18 AM EDT (9/15)
Length of Visible Light 13h 21m
Length of Day
12h 27m
Full, 98% of the Moon is Illuminated
Sep 15
Full
Sep 21
Last Quarter
Sep 28
New
Oct 5
First Quarter
Oct 13
Full

Hourly Weather History & Observations

Time (EDT) Temp. Heat Index Dew Point Humidity Pressure Visibility Wind Dir Wind Speed Gust Speed Precip Events Conditions
12:15 AM 55.4 °F - 55.4 °F 100% 30.24 in 10.0 mi Calm Calm - N/A   Clear
12:35 AM 55.2 °F - 55.2 °F 100% 30.23 in 10.0 mi Calm Calm - N/A   Clear
12:55 AM 54.7 °F - 54.7 °F 100% 30.23 in 10.0 mi Calm Calm - N/A   Clear
1:15 AM 54.7 °F - 54.7 °F 100% 30.23 in 10.0 mi Calm Calm - N/A   Clear
1:35 AM 54.0 °F - 54.0 °F 100% 30.24 in 10.0 mi Calm Calm - N/A   Clear
1:55 AM 53.8 °F - 53.8 °F 100% 30.24 in 10.0 mi Calm Calm - N/A   Clear
2:15 AM 53.6 °F - 53.6 °F 100% 30.24 in 10.0 mi Calm Calm - N/A   Clear
2:35 AM 53.1 °F - 53.1 °F 100% 30.24 in 10.0 mi Calm Calm - N/A   Clear
2:55 AM 52.7 °F - 52.7 °F 100% 30.24 in 10.0 mi Calm Calm - N/A   Clear
3:15 AM 52.5 °F - 52.5 °F 100% 30.24 in 10.0 mi Calm Calm - N/A   Clear
3:30 AM 52.0 °F - 52.0 °F 100% 30.24 in 10.0 mi Calm Calm - N/A   Clear
3:55 AM 52.3 °F - 52.3 °F 100% 30.23 in 10.0 mi Calm Calm - N/A   Clear
4:15 AM 52.2 °F - 52.2 °F 100% 30.22 in 10.0 mi Calm Calm - N/A   Clear
4:35 AM 51.8 °F - 51.8 °F 100% 30.22 in 10.0 mi Calm Calm - N/A   Clear
4:55 AM 50.5 °F - 50.5 °F 100% 30.22 in 10.0 mi Calm Calm - N/A   Clear
5:15 AM 51.4 °F - 51.4 °F 100% 30.22 in 10.0 mi Calm Calm - N/A   Clear
5:35 AM 51.1 °F - 51.1 °F 100% 30.23 in 10.0 mi Calm Calm - N/A   Clear
5:55 AM 51.1 °F - 51.1 °F 100% 30.22 in 10.0 mi Calm Calm - N/A   Clear
6:15 AM 51.3 °F - 51.3 °F 100% 30.23 in 10.0 mi Calm Calm - N/A   Clear
6:35 AM 50.7 °F - 50.7 °F 100% 30.22 in 10.0 mi Calm Calm - N/A   Clear
6:55 AM 50.4 °F - 50.4 °F 100% 30.23 in 10.0 mi Calm Calm - N/A   Clear
7:15 AM 50.7 °F - 50.7 °F 100% 30.23 in 10.0 mi Calm Calm - N/A   Clear
7:35 AM 50.9 °F - 50.9 °F 100% 30.23 in 10.0 mi Calm Calm - N/A   Clear
7:55 AM 52.2 °F - 52.2 °F 100% 30.23 in 10.0 mi Calm Calm - N/A   Clear
8:15 AM 53.8 °F - 53.8 °F 100% 30.24 in 10.0 mi Calm Calm - N/A   Clear
8:35 AM 56.3 °F - 56.3 °F 100% 30.23 in 10.0 mi Calm Calm - N/A   Clear
8:55 AM 57.6 °F - 57.6 °F 100% 30.24 in 10.0 mi Calm Calm - N/A   Clear
9:15 AM 60.4 °F - 59.5 °F 97% 30.25 in 10.0 mi Calm Calm - N/A   Clear
9:35 AM 62.6 °F - 59.2 °F 89% 30.25 in 10.0 mi Calm Calm - N/A   Clear
9:55 AM 67.5 °F - 58.8 °F 74% 30.24 in 10.0 mi Calm Calm - N/A   Clear
10:15 AM 69.8 °F - 56.8 °F 63% 30.24 in 10.0 mi SW 4.6 mph - N/A   Clear
10:35 AM 71.4 °F - 55.4 °F 57% 30.24 in 10.0 mi South 5.8 mph - N/A   Clear
10:55 AM 72.9 °F - 55.9 °F 55% 30.24 in 10.0 mi SSE 5.8 mph - N/A   Clear
11:15 AM 74.3 °F - 54.5 °F 50% 30.23 in 10.0 mi SSW 3.5 mph - N/A   Clear
11:35 AM 75.6 °F - 54.3 °F 48% 30.23 in 10.0 mi WSW 3.5 mph - N/A   Clear
11:55 AM 77.0 °F - 54.9 °F 46% 30.22 in 10.0 mi Calm Calm - N/A   Clear
12:15 PM 77.4 °F - 54.1 °F 44% 30.22 in 10.0 mi Calm Calm - N/A   Clear
12:35 PM 78.4 °F - 55.6 °F 45% 30.21 in 10.0 mi East 5.8 mph - N/A   Clear
12:55 PM 79.3 °F - 54.5 °F 42% 30.21 in 10.0 mi Calm Calm - N/A   Clear
1:15 PM 80.4 °F 80.1 °F 53.4 °F 39% 30.20 in 10.0 mi SE 5.8 mph - N/A   Clear
1:35 PM 81.5 °F - 51.6 °F 35% 30.20 in 10.0 mi South 3.5 mph - N/A   Clear
1:55 PM 81.7 °F - 50.2 °F 33% 30.19 in 10.0 mi Calm Calm - N/A   Clear
2:15 PM 82.0 °F - 50.4 °F 33% 30.18 in 10.0 mi Calm Calm - N/A   Clear
2:35 PM 82.4 °F - 50.2 °F 33% 30.17 in 10.0 mi NNW 4.6 mph - N/A   Clear
2:55 PM 82.4 °F - 50.7 °F 33% 30.16 in 10.0 mi Calm Calm - N/A   Clear
3:15 PM 83.8 °F - 52.5 °F 34% 30.15 in 10.0 mi North 3.5 mph - N/A   Clear
3:35 PM 84.2 °F 82.8 °F 53.6 °F 35% 30.14 in 10.0 mi ENE 4.6 mph - N/A   Clear
3:55 PM 84.9 °F - 52.2 °F 32% 30.13 in 10.0 mi Calm Calm - N/A   Clear
4:15 PM 84.0 °F - 51.6 °F 33% 30.12 in 10.0 mi NNW 3.5 mph - N/A   Clear
4:35 PM 84.7 °F - 51.6 °F 32% 30.12 in 10.0 mi NNW 3.5 mph - N/A   Clear
4:55 PM 84.9 °F - 52.9 °F 33% 30.11 in 10.0 mi WNW 4.6 mph - N/A   Clear
5:15 PM 84.6 °F 83.0 °F 53.2 °F 34% 30.11 in 10.0 mi North 3.5 mph - N/A   Clear
5:35 PM 84.6 °F 83.1 °F 53.8 °F 35% 30.11 in 10.0 mi NE 4.6 mph - N/A   Clear
5:55 PM 83.7 °F 82.3 °F 53.4 °F 35% 30.11 in 10.0 mi NNE 3.5 mph - N/A   Clear
6:15 PM 83.5 °F 82.2 °F 53.6 °F 36% 30.10 in 10.0 mi NNE 3.5 mph - N/A   Clear
6:35 PM 82.8 °F 81.7 °F 53.8 °F 37% 30.10 in 10.0 mi NNE 4.6 mph - N/A   Clear
6:55 PM 81.9 °F 81.3 °F 55.2 °F 40% 30.11 in 10.0 mi Calm Calm - N/A   Clear
7:15 PM 78.6 °F - 61.0 °F 55% 30.11 in 10.0 mi Calm Calm - N/A   Clear
7:35 PM 74.3 °F - 62.1 °F 65% 30.10 in 10.0 mi Calm Calm - N/A   Clear
7:55 PM 72.3 °F - 61.9 °F 70% 30.10 in 10.0 mi Calm Calm - N/A   Clear
8:15 PM 70.5 °F - 61.3 °F 73% 30.10 in 10.0 mi Calm Calm - N/A   Clear
8:35 PM 67.6 °F - 60.8 °F 79% 30.10 in 10.0 mi Calm Calm - N/A   Clear
8:55 PM 66.7 °F - 60.6 °F 81% 30.11 in 10.0 mi Calm Calm - N/A   Clear
9:15 PM 65.8 °F - 61.5 °F 86% 30.11 in 10.0 mi Calm Calm - N/A   Clear
9:35 PM 66.0 °F - 61.9 °F 86% 30.10 in 10.0 mi Calm Calm - N/A   Clear
9:55 PM 65.5 °F - 60.3 °F 83% 30.10 in 10.0 mi Calm Calm - N/A   Clear
10:15 PM 63.0 °F - 63.0 °F 100% 30.11 in 10.0 mi Calm Calm - N/A   Clear
10:35 PM 63.5 °F - 63.3 °F 99% 30.10 in 10.0 mi Calm Calm - N/A   Clear
10:55 PM 62.8 °F - 62.8 °F 100% 30.10 in 10.0 mi Calm Calm - N/A   Scattered Clouds
11:15 PM 62.6 °F - 62.6 °F 100% 30.10 in 10.0 mi Calm Calm - N/A   Scattered Clouds
11:35 PM 62.6 °F - 62.6 °F 100% 30.11 in 10.0 mi Calm Calm - N/A   Scattered Clouds
11:55 PM 62.1 °F - 62.1 °F 100% 30.11 in 10.0 mi Calm Calm - N/A   Scattered Clouds